This demonstration page uses our WeatherBlox Daily Observations layout. Learn more.

Left ArrowRight Arrow

Hourly Observations for August 28, 2021

Temp ( °F °C ) Dew Point ( °F °C ) Humidity (%) Winds ( mph kmh ) Pressure ( in mb ) Visibility ( mi km ) Precip ( " mm )
12:56 am 00:56 Clear 76 24.4 66 18.9 72 72 S 12 19 29.81 1010 10 16 0.00 0.00
1:56 am 01:56 Clear 76 24.4 64 17.8 67 67 S 15 24 29.82 1010 10 16 0.00 0.00
2:56 am 02:56 Clear 76 24.4 64 17.8 67 67 S 15 24 29.81 1010 10 16 0.00 0.00
3:56 am 03:56 Clear 75 23.9 64 17.8 69 69 S 13 20 29.83 1010 10 16 0.00 0.00
4:56 am 04:56 Clear 73 22.8 65 18.3 76 76 S 13 20 29.83 1010 10 16 0.00 0.00
5:56 am 05:56 Clear 73 22.8 65 18.3 76 76 S 15 24 29.83 1010 10 16 0.00 0.00
6:56 am 06:56 Clear 72 22.2 66 18.9 82 82 undefined N/A 29.84 1011 10 16 0.00 0.00
7:56 am 07:56 Sunny 73 22.8 67 19.4 81 81 S 12 19 29.86 1011 10 16 0.00 0.00
8:56 am 08:56 Sunny 77 25 68 20 74 74 S 16 26 29.86 1011 10 16 0.00 0.00
9:56 am 09:56 Sunny 79 26.1 69 20.6 72 72 SSW 18 30 29.86 1011 10 16 0.00 0.00
10:56 am 10:56 Sunny 81 27.2 70 21.1 69 69 S 16 26 29.87 1012 10 16 0.00 0.00
11:56 am 11:56 Sunny 84 28.9 71 21.7 65 65 S 16 26 29.86 1011 10 16 0.00 0.00
12:56 pm 12:56 Sunny 87 30.6 73 22.8 63 63 S 15 24 29.85 1011 10 16 0.00 0.00
1:56 pm 13:56 Sunny 90 32.2 72 22.2 56 56 S 17 28 29.84 1011 10 16 0.00 0.00
2:56 pm 14:56 Sunny 90 32.2 71 21.7 54 54 S 21 33 29.83 1010 10 16 0.00 0.00
3:56 pm 15:56 Sunny 93 33.9 71 21.7 49 49 S 17 28 29.80 1009 10 16 0.00 0.00
4:56 pm 16:56 Sunny 91 32.8 69 20.6 49 49 SSE 16 26 29.80 1009 10 16 0.00 0.00
5:56 pm 17:56 Sunny 90 32.2 72 22.2 56 56 SSE 14 22 29.80 1009 10 16 0.00 0.00
6:56 pm 18:56 Sunny 88 31.1 71 21.7 57 57 SSE 13 20 29.78 1008 10 16 0.00 0.00
7:56 pm 19:56 Sunny 83 28.3 69 20.6 63 63 SSE 14 22 29.79 1009 10 16 0.00 0.00
8:56 pm 20:56 Clear 80 26.7 68 20 67 67 SSE 12 19 29.81 1009 10 16 0.00 0.00
9:56 pm 21:56 Clear 80 26.7 66 18.9 62 62 SSE 9 15 29.83 1010 10 16 0.00 0.00
10:56 pm 22:56 Mostly Cloudy 75 23.9 64 17.8 69 69 N 15 24 29.90 1013 10 16 0.00 0.00
11:56 pm 23:56 Mostly Cloudy 69 20.6 65 18.3 87 87 N 16 26 29.96 1015 10 16 0.00 0.00

Powered by AerisWeather